{"data":{"norad_id":58228,"intl_designator":"2023-170Y","name":"STARLINK-30871","alt_names":[],"object_type":"PAYLOAD","status":"ACTIVE","operator":null,"country":"US","launch_date":"2023-11-03","launch_site_code":"AFETR","launch_vehicle":null,"mission":null,"orbit_class":"UNKNOWN","rcs_meters":null,"size_class":null,"mass_kg":null,"dimensions":null,"purposes":["comms"],"wikipedia_slug":null,"has_3d_model":false,"image_url":null,"decayed_at":null,"tle_current":{"epoch":"2026-09-20T10:51:23.853888Z","epoch_age_seconds":147807,"freshness":"FRESH","line1":"1 58228U 23170Y   26263.45235942  .00005375  00000+0  20475-3 0  9991","line2":"2 58228  43.0021 174.4828 0000976 267.9104  92.1636 15.27570604160081","mean_motion":15.27570604,"eccentricity":9.76e-5,"inclination_deg":43.0021,"raan_deg":174.4828,"arg_perigee_deg":267.9104,"mean_anomaly_deg":92.1636,"bstar":0.00020475,"rev_number":16008,"period_min":94.267328543067,"perigee_km":482.4075766791,"apogee_km":483.74688569702,"semimajor_km":6861.2142311881,"source":"CELESTRAK","updated_at":"2026-09-21T09:00:33.835732Z"}}}